Weather in Mandrovo

Russia / Belgorod Oblast     50°17′46″N   38°15′02″E
temp.,
°C
wind,
m/s
gust,
m/s
humid.,
%
clouds,
%
prec.,
mm/h
press.,
hPa
HPBL,
m
15 april, thu
thu1500:00+11s3379100 0.0 101463
03:00+9sw369412 0.0 1014167
06:00+8sw25895 0.0 1015106
09:00+12ssw46680 0.0 1016639
12:00+15s574860 0.0 10151558
15:00+15s4651100 0.0 10141757
18:00+15sse3658100 0.1 1014649
21:00+11s3978100 0.8 1014303
16 april, fri
fri1600:00+9s37885 0.0 1015163
03:00+7sse22920 0.0 101542
06:00+6sse24924 0.0 101672
09:00+11s46685 0.0 1017720
12:00+14s575389 0.1 10161764
15:00+15ssw6643100 0.1 10161932
18:00+12sw5559100 0.0 1017884
21:00+9sw11744 0.0 101710
17 april, sat
sat1700:00+7sse2479100 0.0 101883
03:00+6sw119264 0.0 101815
06:00+5sw2294100 0.0 101919
09:00+9sw4471100 0.0 1019586
12:00+12wsw4555100 0.0 10191390
15:00+13w544358 0.1 10191878
18:00+12wnw665625 0.0 1019827
21:00+8w227249 0.0 102023
18 april, sun
sun1800:00+7w3780100 0.0 1020181
03:00+7nw37866 0.0 1020139
06:00+7nw388886 0.0 1020238
09:00+11n457595 0.0 1020711
12:00+15ne565942 0.0 10201365
15:00+14ene786181 0.1 10211404
18:00+13ene586361 0.0 10221340
21:00+9ene410805 0.0 1024274
19 april, mon
mon1900:00+7e36895 0.0 1025136
03:00+6ene36905 0.0 1025124
06:00+6e410925 0.0 1025245
09:00+12ese710605 0.0 10251004
12:00+15ese8114487 0.0 10241671
15:00+16ese9114169 0.0 10222000
18:00+14ese8134867 0.0 10221303
21:00+11ese91556100 0.0 1021973